[[{"header":{"parameterUnit":"m.s-1","parameterCategory":2,"la1":30.2992,"la2":30.254,"lo1":-89.0895,"lo2":-89.0443,"dy":0.0025,"dx":0.0025,"nx":19,"ny":19,"refTime":"2026-05-02T21:00:00:Z","depth":"0","parameterNumber":2,"parameterNumberName":"U-component_of_CURRENTS"},"data":[0,0,0,-0.1067,-0.1067,-0.1069,-0.1069,-0.1092,-0.1092,0,0,0,0,0,0,0,0,0,0,0,-0.1063,-0.1063,-0.1067,-0.1067,-0.1069,-0.1069,-0.1092,-0.1092,0,0,0,0,0,0,0,0,0,0,0,-0.1063,-0.1063,-0.1063,-0.1067,-0.1069,-0.1069,-0.1092,-0.1085,0,0,0,0,0,0,0,0,0,0,-0.108,-0.1074,-0.1063,-0.1063,-0.1067,-0.1069,-0.1069,-0.1084,-0.1085,-0.1097,0,-0.1095,0,-0.1096,-0.1094,-0.1094,0,0,0,-0.1066,-0.1073,-0.1075,-0.1063,-0.1067,-0.1069,-0.1068,-0.1085,-0.1086,-0.1098,-0.1095,-0.1096,-0.1097,-0.1094,-0.1094,-0.116,-0.1161,0,0,-0.1066,-0.1063,-0.1074,-0.1075,-0.1066,-0.1068,-0.1068,-0.1085,-0.1085,-0.1095,-0.1097,-0.1097,-0.1094,-0.1095,-0.116,-0.116,0,0,0,-0.1066,-0.1063,-0.1064,-0.1075,-0.1075,-0.1068,-0.1068,-0.1084,-0.1085,-0.1097,-0.1097,-0.1095,-0.1095,-0.1159,-0.116,-0.1167,0,0,0,-0.1066,-0.1064,-0.1064,-0.1063,-0.1074,-0.1077,-0.1067,-0.1084,-0.1086,-0.1097,-0.1095,-0.1095,-0.1159,-0.116,-0.1166,-0.1136,0,0,0,-0.1063,-0.1063,-0.1063,-0.1063,-0.1065,-0.1076,-0.1078,-0.1084,-0.1086,-0.1094,-0.1095,-0.1158,-0.1159,-0.1165,-0.1135,-0.107,0,0,0,-0.1062,-0.1071,-0.1063,-0.1078,-0.1065,-0.1092,-0.1078,-0.1096,-0.1106,-0.1095,-0.1159,-0.116,-0.1164,-0.1135,-0.1071,-0.0851,-0.083,0,0,-0.1076,-0.1073,-0.1084,-0.1077,-0.1108,-0.1092,-0.1124,-0.1126,-0.1128,-0.1153,-0.1154,-0.1166,-0.1135,-0.107,-0.0919,-0.0895,0,0,0,-0.1091,-0.1095,-0.1105,-0.1117,-0.1133,-0.114,-0.1147,-0.1148,-0.1165,-0.1139,-0.1188,-0.1168,-0.1126,-0.0997,-0.0979,-0.0752,-0.1165,-0.1165,-0.1165,-0.1098,-0.1112,-0.1129,-0.1146,-0.1162,-0.118,-0.1182,-0.1187,-0.1195,-0.1207,-0.1192,-0.1169,-0.1036,-0.1019,-0.079,-0.123,-0.123,-0.123,-0.123,-0.1107,-0.1101,-0.113,-0.1148,-0.1167,-0.1187,-0.1205,-0.1209,-0.119,-0.1217,-0.1176,-0.1034,-0.0999,-0.0762,-0.1231,-0.1231,-0.1231,-0.1231,-0.1231,-0.1085,-0.108,-0.1102,-0.1116,-0.1135,-0.1161,-0.1129,-0.116,-0.1169,-0.1154,-0.0961,-0.0958,-0.0726,-0.1118,-0.1118,-0.1118,-0.1117,-0.1117,-0.1117,-0.1032,-0.1056,-0.1043,-0.1069,-0.1061,-0.1058,-0.1064,-0.1031,-0.0944,-0.0921,-0.0919,-0.0674,-0.1133,-0.1111,-0.1111,-0.1112,-0.1113,-0.1113,-0.1114,-0.0961,-0.0975,-0.0948,-0.0939,-0.0924,-0.0854,-0.0885,-0.0732,-0.0698,-0.0604,-0.0352,-0.0784,-0.0738,-0.075,-0.0718,-0.0617,-0.0617,-0.0617,-0.0616,-0.0894,-0.0907,-0.0843,-0.08,-0.0766,-0.0748,-0.0535,-0.0394,-0.0164,0.0014,-0.0025,0.001,-0.002,0.0067,0.0036,0.0083,0.0386,0.0387,0.0388,-0.0825,-0.082,-0.0743,-0.0724,-0.0682,-0.0605,-0.0348,-0.002,0.0342,0.0442,0.025,0.0208,0.026,0.0194,0.0324,0.0262,0.0334,0,0]},{"header":{"parameterUnit":"m.s-1","parameterCategory":2,"la1":30.2992,"la2":30.254,"lo1":-89.0895,"lo2":-89.0443,"dy":0.0025,"dx":0.0025,"nx":19,"ny":19,"refTime":"2026-05-02T21:00:00:Z","depth":"0","parameterNumber":3,"parameterNumberName":"V-component_of_CURRENTS"},"data":[0,0,0,-0.0589,-0.0589,-0.057,-0.0569,-0.0527,-0.0526,0,0,0,0,0,0,0,0,0,0,0,-0.0596,-0.0596,-0.0589,-0.0589,-0.057,-0.0569,-0.0527,-0.0526,0,0,0,0,0,0,0,0,0,0,0,-0.0596,-0.0596,-0.0596,-0.0589,-0.057,-0.0569,-0.0527,-0.0545,0,0,0,0,0,0,0,0,0,0,-0.0565,-0.0576,-0.0596,-0.0596,-0.0589,-0.057,-0.0569,-0.0546,-0.0544,-0.0532,0,-0.0533,0,-0.0531,-0.0524,-0.0524,0,0,0,-0.0584,-0.0578,-0.0573,-0.0596,-0.0589,-0.057,-0.0577,-0.0545,-0.0542,-0.0529,-0.0533,-0.0531,-0.053,-0.0523,-0.0523,-0.0554,-0.0554,0,0,-0.0585,-0.059,-0.0575,-0.0572,-0.0588,-0.0577,-0.0576,-0.0543,-0.0542,-0.0532,-0.053,-0.0529,-0.0523,-0.0523,-0.0553,-0.0554,0,0,0,-0.0591,-0.059,-0.0587,-0.0574,-0.0573,-0.0577,-0.0576,-0.0543,-0.0542,-0.053,-0.0529,-0.0523,-0.0522,-0.0552,-0.0553,-0.0647,0,0,0,-0.0592,-0.0595,-0.0587,-0.059,-0.0574,-0.056,-0.0576,-0.0545,-0.0541,-0.0529,-0.0523,-0.0522,-0.0552,-0.0553,-0.0643,-0.0642,0,0,0,-0.0596,-0.0595,-0.0595,-0.059,-0.0584,-0.0561,-0.0558,-0.0544,-0.0541,-0.0524,-0.0522,-0.0551,-0.0553,-0.064,-0.0637,-0.0571,0,0,0,-0.0599,-0.0615,-0.0595,-0.0612,-0.0585,-0.0601,-0.0558,-0.0558,-0.0548,-0.0523,-0.0552,-0.0553,-0.0638,-0.0634,-0.057,-0.0384,-0.0376,0,0,-0.0624,-0.0618,-0.063,-0.0612,-0.0647,-0.0603,-0.0644,-0.0606,-0.0569,-0.0558,-0.0559,-0.0645,-0.0637,-0.0571,-0.0473,-0.0461,0,0,0,-0.0642,-0.0656,-0.066,-0.0674,-0.0672,-0.0688,-0.0657,-0.0649,-0.065,-0.0571,-0.0649,-0.064,-0.0596,-0.0482,-0.0474,-0.0395,-0.056,-0.056,-0.056,-0.0685,-0.0692,-0.0727,-0.0741,-0.075,-0.0749,-0.0758,-0.0744,-0.0706,-0.0729,-0.0723,-0.0742,-0.0628,-0.0617,-0.0543,-0.0751,-0.0751,-0.0752,-0.0752,-0.0741,-0.0761,-0.0781,-0.0817,-0.0831,-0.0856,-0.0859,-0.0846,-0.0822,-0.0812,-0.0765,-0.0595,-0.0612,-0.0536,-0.0758,-0.0757,-0.0756,-0.0756,-0.0755,-0.077,-0.0782,-0.0807,-0.0855,-0.089,-0.0899,-0.0878,-0.0889,-0.0867,-0.0861,-0.0631,-0.0626,-0.0542,-0.0805,-0.0805,-0.0804,-0.0804,-0.0804,-0.0804,-0.0778,-0.0808,-0.0834,-0.0879,-0.089,-0.0887,-0.0864,-0.0813,-0.0706,-0.0673,-0.0671,-0.0531,-0.0755,-0.0734,-0.08,-0.0801,-0.0801,-0.0802,-0.0802,-0.0795,-0.08,-0.0833,-0.0847,-0.0852,-0.0772,-0.0754,-0.0559,-0.0503,-0.0404,-0.0341,-0.0549,-0.0467,-0.0471,-0.0442,-0.0428,-0.0428,-0.0428,-0.0428,-0.0789,-0.0801,-0.0815,-0.0815,-0.079,-0.0718,-0.046,-0.027,-0.0138,-0.0075,-0.0151,-0.0132,-0.015,-0.0051,-0.0065,-0.0027,0.0091,0.0091,0.0092,-0.0786,-0.0793,-0.0788,-0.0795,-0.076,-0.0613,-0.0306,0.0064,0.0203,0.0111,-0.0087,-0.0109,-0.0091,-0.0125,0.002,-0.0005,0.0053,0,0]}],[{"header":{"parameterUnit":"m.s-1","parameterCategory":2,"la1":30.2992,"la2":30.254,"lo1":-89.0895,"lo2":-89.0443,"dy":0.0025,"dx":0.0025,"nx":19,"ny":19,"refTime":"2026-05-02T21:00:00:Z","depth":"2","parameterNumber":2,"parameterNumberName":"U-component_of_CURRENTS"},"data":[0,0,0,-0.0967,-0.0967,-0.0975,-0.0975,-0.0989,-0.099,0,0,0,0,0,0,0,0,0,0,0,-0.0963,-0.0963,-0.0967,-0.0967,-0.0975,-0.0975,-0.0989,-0.099,0,0,0,0,0,0,0,0,0,0,0,-0.0963,-0.0963,-0.0963,-0.0967,-0.0975,-0.0975,-0.0989,-0.0982,0,0,0,0,0,0,0,0,0,0,-0.0974,-0.0969,-0.0963,-0.0963,-0.0967,-0.0975,-0.0975,-0.0982,-0.0983,-0.0987,0,-0.0987,0,-0.099,-0.0991,-0.0991,0,0,0,-0.0967,-0.0968,-0.0971,-0.0963,-0.0967,-0.0975,-0.0971,-0.0982,-0.0983,-0.0988,-0.0988,-0.0988,-0.099,-0.0991,-0.0991,-0.101,-0.1011,0,0,-0.0966,-0.0964,-0.0971,-0.0972,-0.0969,-0.0971,-0.0972,-0.0983,-0.0983,-0.0988,-0.0988,-0.099,-0.0991,-0.0991,-0.101,-0.101,0,0,0,-0.0965,-0.0963,-0.0966,-0.0971,-0.0973,-0.0971,-0.0972,-0.0982,-0.0984,-0.0989,-0.099,-0.0991,-0.0991,-0.101,-0.101,-0.1011,0,0,0,-0.0965,-0.0963,-0.0966,-0.0964,-0.0973,-0.0977,-0.0971,-0.0983,-0.0984,-0.099,-0.0991,-0.0991,-0.101,-0.101,-0.101,-0.1009,0,0,0,-0.0962,-0.0963,-0.0963,-0.0964,-0.0968,-0.0977,-0.0979,-0.0983,-0.0985,-0.0991,-0.0991,-0.101,-0.101,-0.101,-0.1009,-0.096,0,0,0,-0.096,-0.0967,-0.0963,-0.0976,-0.0968,-0.0988,-0.0979,-0.0995,-0.1003,-0.0991,-0.101,-0.101,-0.101,-0.1009,-0.0961,-0.0778,-0.076,0,0,-0.097,-0.0968,-0.0977,-0.0974,-0.0991,-0.0987,-0.1,-0.1005,-0.1005,-0.1006,-0.1007,-0.101,-0.1009,-0.096,-0.0792,-0.0773,0,0,0,-0.0982,-0.0982,-0.099,-0.0996,-0.1009,-0.1008,-0.1014,-0.1013,-0.1014,-0.101,-0.1015,-0.1014,-0.0983,-0.0875,-0.086,-0.1011,-0.1011,-0.1011,-0.1011,-0.0979,-0.0988,-0.0997,-0.1004,-0.1017,-0.1025,-0.1024,-0.102,-0.1026,-0.1025,-0.1018,-0.0987,-0.0874,-0.086,-0.1023,-0.1023,-0.1023,-0.1023,-0.1023,-0.0977,-0.0971,-0.0988,-0.0998,-0.1005,-0.1015,-0.1023,-0.1023,-0.1004,-0.1023,-0.0992,-0.0886,-0.0844,-0.1023,-0.1023,-0.1023,-0.1023,-0.1023,-0.1023,-0.0955,-0.095,-0.0963,-0.097,-0.098,-0.0997,-0.0973,-0.0996,-0.0997,-0.0983,-0.0828,-0.0825,-0.0965,-0.0953,-0.0953,-0.0953,-0.0953,-0.0953,-0.0953,-0.0914,-0.0927,-0.0916,-0.0935,-0.0931,-0.0935,-0.094,-0.091,-0.0835,-0.0807,-0.0805,-0.0963,-0.0965,-0.096,-0.0949,-0.095,-0.095,-0.0951,-0.0951,-0.0854,-0.0868,-0.0846,-0.084,-0.0832,-0.0766,-0.0801,-0.0664,-0.0641,-0.0558,-0.0686,-0.0693,-0.0665,-0.0674,-0.0661,-0.0574,-0.0574,-0.0574,-0.0574,-0.0803,-0.0813,-0.0762,-0.073,-0.0702,-0.0678,-0.0472,-0.0351,-0.0346,-0.0335,-0.0346,-0.0329,-0.0347,-0.0303,-0.0321,-0.0302,-0.0121,-0.0121,-0.012,-0.0746,-0.0744,-0.068,-0.0663,-0.0628,-0.054,-0.0275,0.0006,0.0049,-0.011,-0.0343,-0.0529,-0.0533,-0.0552,-0.0509,-0.0528,-0.0508,0,0]},{"header":{"parameterUnit":"m.s-1","parameterCategory":2,"la1":30.2992,"la2":30.254,"lo1":-89.0895,"lo2":-89.0443,"dy":0.0025,"dx":0.0025,"nx":19,"ny":19,"refTime":"2026-05-02T21:00:00:Z","depth":"2","parameterNumber":3,"parameterNumberName":"V-component_of_CURRENTS"},"data":[0,0,0,-0.035,-0.035,-0.0347,-0.0347,-0.0316,-0.0316,0,0,0,0,0,0,0,0,0,0,0,-0.035,-0.035,-0.035,-0.035,-0.0347,-0.0347,-0.0316,-0.0316,0,0,0,0,0,0,0,0,0,0,0,-0.035,-0.035,-0.035,-0.035,-0.0347,-0.0347,-0.0316,-0.0324,0,0,0,0,0,0,0,0,0,0,-0.0329,-0.0337,-0.035,-0.035,-0.035,-0.0347,-0.0347,-0.0325,-0.0323,-0.0311,0,-0.0315,0,-0.0317,-0.0314,-0.0314,0,0,0,-0.0345,-0.0338,-0.0337,-0.035,-0.035,-0.0347,-0.0347,-0.0324,-0.0323,-0.031,-0.0315,-0.0314,-0.0316,-0.0314,-0.0313,-0.0288,-0.0288,0,0,-0.0345,-0.0347,-0.0338,-0.0336,-0.0354,-0.0347,-0.0347,-0.0324,-0.0323,-0.0315,-0.0313,-0.0316,-0.0313,-0.0313,-0.0288,-0.0288,0,0,0,-0.0349,-0.0347,-0.0348,-0.0337,-0.034,-0.0347,-0.0347,-0.0324,-0.0325,-0.0313,-0.0316,-0.0313,-0.0313,-0.0288,-0.0288,-0.0317,0,0,0,-0.0349,-0.035,-0.0348,-0.0349,-0.0341,-0.0337,-0.0348,-0.0327,-0.0324,-0.0316,-0.0313,-0.0312,-0.0288,-0.0288,-0.0316,-0.0338,0,0,0,-0.0349,-0.035,-0.0352,-0.0349,-0.0351,-0.0337,-0.0336,-0.0326,-0.0326,-0.0314,-0.0312,-0.0288,-0.0288,-0.0315,-0.0337,-0.0308,0,0,0,-0.0349,-0.0363,-0.0352,-0.0368,-0.0351,-0.0359,-0.0336,-0.0339,-0.0332,-0.0313,-0.0288,-0.0288,-0.0315,-0.0336,-0.0307,-0.0248,-0.0244,0,0,-0.0368,-0.0365,-0.0376,-0.0366,-0.0382,-0.0358,-0.036,-0.0342,-0.0324,-0.0293,-0.0293,-0.0316,-0.0337,-0.0308,-0.0244,-0.024,0,0,0,-0.0383,-0.0391,-0.0394,-0.04,-0.0397,-0.0382,-0.0363,-0.0347,-0.0325,-0.032,-0.0307,-0.0319,-0.0299,-0.0262,-0.026,-0.0288,-0.0288,-0.0288,-0.0288,-0.0407,-0.0409,-0.0425,-0.0423,-0.0421,-0.0398,-0.0383,-0.0353,-0.0337,-0.0329,-0.0334,-0.0325,-0.0286,-0.0283,-0.032,-0.032,-0.032,-0.032,-0.032,-0.0439,-0.0451,-0.0444,-0.0463,-0.0442,-0.0438,-0.0397,-0.0381,-0.0349,-0.0345,-0.0324,-0.0286,-0.0282,-0.0323,-0.0322,-0.0322,-0.0322,-0.0322,-0.0321,-0.0461,-0.0466,-0.0477,-0.0493,-0.0489,-0.0467,-0.0441,-0.0418,-0.0379,-0.037,-0.0295,-0.0294,-0.0335,-0.0349,-0.0349,-0.0349,-0.0349,-0.0349,-0.0349,-0.0479,-0.0487,-0.0511,-0.0524,-0.053,-0.0521,-0.0472,-0.0431,-0.0358,-0.0322,-0.0321,-0.0333,-0.0333,-0.0336,-0.0348,-0.0348,-0.0348,-0.0348,-0.0348,-0.0508,-0.0516,-0.0547,-0.0562,-0.0565,-0.052,-0.0484,-0.0361,-0.0313,-0.0258,-0.0273,-0.0275,-0.0253,-0.0254,-0.0255,-0.0245,-0.0245,-0.0245,-0.0245,-0.0527,-0.0534,-0.0568,-0.0583,-0.0578,-0.0518,-0.0383,-0.0284,-0.0226,-0.0216,-0.0217,-0.0209,-0.0213,-0.0189,-0.0192,-0.0191,-0.0165,-0.0165,-0.0165,-0.0545,-0.0552,-0.0572,-0.0586,-0.0579,-0.0485,-0.0316,-0.0145,-0.01,-0.0167,-0.0249,-0.0231,-0.0222,-0.0227,-0.0193,-0.0196,-0.0196,0,0]}],[{"header":{"parameterUnit":"m.s-1","parameterCategory":2,"la1":30.2992,"la2":30.254,"lo1":-89.0895,"lo2":-89.0443,"dy":0.0025,"dx":0.0025,"nx":19,"ny":19,"refTime":"2026-05-02T21:00:00:Z","depth":"4","parameterNumber":2,"parameterNumberName":"U-component_of_CURRENTS"},"data":[0,0,0,-0.0724,-0.0725,-0.0767,-0.0768,-0.0786,-0.0786,0,0,0,0,0,0,0,0,0,0,0,-0.0711,-0.0712,-0.0724,-0.0725,-0.0767,-0.0768,-0.0786,-0.0786,0,0,0,0,0,0,0,0,0,0,0,-0.0711,-0.0712,-0.0712,-0.0725,-0.0767,-0.0768,-0.0786,-0.0763,0,0,0,0,0,0,0,0,0,0,-0.0726,-0.0721,-0.0712,-0.0712,-0.0725,-0.0767,-0.0768,-0.0762,-0.0764,-0.0756,0,-0.0766,0,-0.0775,-0.0786,-0.0786,0,0,0,-0.0725,-0.072,-0.0729,-0.0712,-0.0726,-0.0767,-0.0748,-0.0764,-0.0766,-0.0759,-0.0767,-0.0768,-0.0775,-0.0786,-0.0786,-0.0778,-0.0778,0,0,-0.0723,-0.072,-0.0727,-0.073,-0.0741,-0.0747,-0.075,-0.0765,-0.077,-0.0767,-0.0768,-0.0775,-0.0786,-0.0786,-0.0778,-0.0778,0,0,0,-0.0716,-0.0718,-0.0728,-0.0729,-0.0739,-0.0748,-0.0751,-0.0769,-0.0772,-0.0768,-0.0775,-0.0786,-0.0786,-0.0778,-0.0778,-0.0786,0,0,0,-0.0715,-0.0714,-0.0727,-0.0725,-0.0739,-0.076,-0.0755,-0.0771,-0.0773,-0.0775,-0.0786,-0.0786,-0.0779,-0.0778,-0.0786,-0.0794,0,0,0,-0.0709,-0.0713,-0.0719,-0.0725,-0.0743,-0.076,-0.0764,-0.0772,-0.0777,-0.0786,-0.0786,-0.0779,-0.0778,-0.0787,-0.0794,-0.0768,0,0,0,-0.0702,-0.0713,-0.0719,-0.0734,-0.0743,-0.0763,-0.0765,-0.0786,-0.0796,-0.0786,-0.0778,-0.0778,-0.0787,-0.0794,-0.0768,-0.0638,0,0,0,-0.071,-0.0714,-0.0722,-0.0729,-0.0745,-0.0757,-0.077,-0.0787,-0.0785,-0.0771,-0.0771,-0.0786,-0.0794,-0.0768,-0.0621,0,0,0,0,-0.072,-0.0723,-0.0731,-0.0743,-0.076,-0.0771,-0.0785,-0.0786,-0.0785,-0.0789,-0.0778,-0.0782,-0.0766,-0.069,-0.0777,-0.0777,-0.0777,-0.0777,-0.0777,-0.0714,-0.0724,-0.0734,-0.0746,-0.0761,-0.0779,-0.0786,-0.0785,-0.0785,-0.0783,-0.0782,-0.0761,-0.0681,-0.0773,-0.0773,-0.0773,-0.0773,-0.0773,-0.0773,-0.071,-0.0708,-0.0729,-0.0743,-0.0759,-0.0772,-0.0781,-0.0786,-0.0772,-0.0779,-0.0762,-0.0697,-0.0773,-0.0773,-0.0773,-0.0773,-0.0773,-0.0773,-0.0773,-0.0688,-0.0688,-0.0708,-0.0727,-0.075,-0.0771,-0.0763,-0.0784,-0.0776,-0.0771,-0.0666,-0.0757,-0.0762,-0.0754,-0.0754,-0.0754,-0.0754,-0.0754,-0.0754,-0.0652,-0.0671,-0.0677,-0.071,-0.0722,-0.074,-0.0757,-0.0732,-0.0737,-0.0658,-0.0767,-0.0754,-0.0755,-0.076,-0.0753,-0.0753,-0.0753,-0.0753,-0.0753,-0.0604,-0.0624,-0.0625,-0.0638,-0.0658,-0.0661,-0.0705,-0.062,-0.0579,-0.0518,-0.0584,-0.0593,-0.0573,-0.0578,-0.0577,-0.0515,-0.0513,-0.0511,0,-0.0564,-0.0577,-0.0564,-0.056,-0.0548,-0.0597,-0.05,-0.0481,-0.0471,-0.0453,-0.0585,-0.0665,-0.0669,-0.0653,-0.0654,-0.0655,0,0,0,-0.0523,-0.0528,-0.0496,-0.0502,-0.0483,-0.0441,-0.0464,-0.0408,-0.0496,-0.0393,-0.0468,-0.0479,-0.0644,-0.0749,-0.0739,-0.074,-0.0748,0,0]},{"header":{"parameterUnit":"m.s-1","parameterCategory":2,"la1":30.2992,"la2":30.254,"lo1":-89.0895,"lo2":-89.0443,"dy":0.0025,"dx":0.0025,"nx":19,"ny":19,"refTime":"2026-05-02T21:00:00:Z","depth":"4","parameterNumber":3,"parameterNumberName":"V-component_of_CURRENTS"},"data":[0,0,0,-0.0208,-0.0208,-0.0223,-0.0223,-0.0208,-0.0207,0,0,0,0,0,0,0,0,0,0,0,-0.0202,-0.0202,-0.0208,-0.0208,-0.0223,-0.0223,-0.0208,-0.0207,0,0,0,0,0,0,0,0,0,0,0,-0.0202,-0.0202,-0.0202,-0.0208,-0.0223,-0.0223,-0.0208,-0.0204,0,0,0,0,0,0,0,0,0,0,-0.0194,-0.0197,-0.0202,-0.0202,-0.0209,-0.0223,-0.0223,-0.0204,-0.0204,-0.0193,0,-0.0199,0,-0.0204,-0.0206,-0.0206,0,0,0,-0.0204,-0.0197,-0.02,-0.0202,-0.0209,-0.0223,-0.0215,-0.0204,-0.0204,-0.0192,-0.0199,-0.0198,-0.0204,-0.0206,-0.0206,-0.0156,-0.0156,0,0,-0.0203,-0.0204,-0.02,-0.02,-0.0217,-0.0215,-0.0216,-0.0205,-0.0206,-0.0199,-0.0198,-0.0204,-0.0206,-0.0205,-0.0157,-0.0156,0,0,0,-0.0204,-0.0203,-0.0207,-0.02,-0.0206,-0.0215,-0.0216,-0.0207,-0.0208,-0.0198,-0.0203,-0.0206,-0.0205,-0.0157,-0.0157,-0.0163,0,0,0,-0.0203,-0.0204,-0.0207,-0.0207,-0.0207,-0.0212,-0.0218,-0.0209,-0.0208,-0.0204,-0.0206,-0.0205,-0.0158,-0.0157,-0.0164,-0.0179,0,0,0,-0.0201,-0.0203,-0.0206,-0.0207,-0.0215,-0.0213,-0.0213,-0.0209,-0.0211,-0.0206,-0.0205,-0.0158,-0.0157,-0.0165,-0.0179,-0.0185,0,0,0,-0.0198,-0.0208,-0.0207,-0.0219,-0.0215,-0.0218,-0.0214,-0.0218,-0.0215,-0.0205,-0.0157,-0.0157,-0.0165,-0.0179,-0.0185,-0.0208,0,0,0,-0.0209,-0.0209,-0.0216,-0.0215,-0.0222,-0.0215,-0.0205,-0.0204,-0.0192,-0.0159,-0.0158,-0.0164,-0.0179,-0.0185,-0.0153,0,0,0,0,-0.0218,-0.0223,-0.0225,-0.023,-0.0228,-0.0214,-0.0207,-0.019,-0.0164,-0.0187,-0.0143,-0.0152,-0.0156,-0.0168,-0.0152,-0.0152,-0.0152,-0.0152,-0.0153,-0.0229,-0.023,-0.0238,-0.0234,-0.023,-0.021,-0.0191,-0.016,-0.0156,-0.0135,-0.0142,-0.0131,-0.0141,-0.0118,-0.0118,-0.0118,-0.0118,-0.0118,-0.0118,-0.0246,-0.0255,-0.0246,-0.0258,-0.0236,-0.0225,-0.0173,-0.0159,-0.0124,-0.0117,-0.0121,-0.0155,-0.0118,-0.0118,-0.0118,-0.0118,-0.0118,-0.0118,-0.0118,-0.0259,-0.0263,-0.0272,-0.0283,-0.0273,-0.0247,-0.0229,-0.0189,-0.0142,-0.0135,-0.0158,-0.0137,-0.0156,-0.0145,-0.0145,-0.0145,-0.0145,-0.0145,-0.0145,-0.0274,-0.0279,-0.0306,-0.0313,-0.0324,-0.0319,-0.0273,-0.0248,-0.0201,-0.0172,-0.015,-0.014,-0.0139,-0.0156,-0.0146,-0.0146,-0.0146,-0.0146,-0.0146,-0.0297,-0.0309,-0.0344,-0.0366,-0.0385,-0.0374,-0.0342,-0.0283,-0.0257,-0.0227,-0.0184,-0.0182,-0.0186,-0.0184,-0.0203,-0.0207,-0.0207,-0.0207,0,-0.0318,-0.0324,-0.0376,-0.0408,-0.0422,-0.0401,-0.0367,-0.0328,-0.0263,-0.0256,-0.0254,-0.0208,-0.0205,-0.0212,-0.0211,-0.0235,0,0,0,-0.0338,-0.0349,-0.0387,-0.0418,-0.0433,-0.0384,-0.0352,-0.0328,-0.0275,-0.0256,-0.0215,-0.0213,-0.0204,-0.015,-0.0152,-0.015,-0.0178,0,0]}]]